Regional Weather Roundup
Issued by NWS Newport/Morehead, NC

Current Version | Previous Version | Graphics & Text | Print | Product List | Glossary Off
Versions: 1 2 3 4 5 6 7 8 9 10 11 12 13 14 15 16 17 18 19 20 21 22 23 24 25 26 27 28 29 30 31 32 33 34 35 36 37 38 39 40 41 42 43 44 45 46 47 48 49 50

000
ASUS42 KMHX 070712
RWRMHX
WEATHER ROUNDUP FOR EASTERN NORTH CAROLINA
NATIONAL WEATHER SERVICE NEWPORT/MOREHEAD CITY NC
200 AM EST WED DEC 07 2016

NOTE: "FAIR" INDICATES FEW OR NO CLOUDS BELOW 12,000 FEET
WITH NO SIGNIFICANT WEATHER AND/OR OBSTRUCTIONS TO VISIBILITY

NCZ015>017-031-032-045>047-102-103-070800-
NORTH COAST

CITY           SKY/WX    TMP DP  RH WIND       PRES   REMARKS
EDENTON        CLOUDY    47  44  88 W6G17     29.85R
ELIZABETH CITY CLOUDY    47  45  93 W15       29.81R
KITTY HAWK     CLOUDY    48  48 100 W13G22    29.76R
MANTEO         CLOUDY    47  46  95 NW16G26   29.78R

$$

NCZ045>047-081-094-103-104-070800-
CENTRAL COAST

CITY           SKY/WX    TMP DP  RH WIND       PRES   REMARKS
FRISCO         CLOUDY    49  46  90 NW16G23   29.79R

$$

NCZ095-097-098-100-101-070800-
SOUTHERN COAST

CITY           SKY/WX    TMP DP  RH WIND       PRES   REMARKS
BEAUFORT       CLEAR     49  45  86 NW15G21   29.84R
CEDAR ISLAND   NOT AVBL
JACKSONVILLE   NOT AVBL
PINEY ISLAND   CLOUDY   N/A N/A N/A NW16G24   29.84R
WILMINGTON     MOCLDY    48  47  96 NW15      29.89R


$$

NCZ011>013-027>030-043-044-078>080-089-090>093-098-070800-
COASTAL PLAIN

CITY           SKY/WX    TMP DP  RH WIND       PRES   REMARKS
AHOSKIE        CLOUDY    43  42  95 NW3       29.87R
CLINTON        CLOUDY    44  44  98 NW7       29.92R
ELIZABETHTOWN  CLOUDY    47  46  97 NW6       29.91S
GOLDSBORO      CLOUDY    45  45 100 W7        29.89R
GREENVILLE     CLOUDY    45  43  93 NW8       29.91R
HAVELOCK       CLOUDY    47  44  90 NW12      29.87R
KENANSVILLE    CLOUDY    45  43  93 NW7       29.91R
KINSTON          N/A     45  42  91 NW9       29.90R
NEW BERN       CLOUDY    46  43  89 NW12      29.89R
RICHLANDS      CLOUDY    45  43  93 NW6       29.90R
ROCKY MOUNT    CLOUDY    43  43 100 W8        29.90R
WASHINGTON     CLOUDY    44  42  93 NW9       29.88R
WHITEVILLE     CLOUDY    49  46  91 W5        29.90R

$$

AMZ130-135-150-152-154-156-158-170-250-252-270-ANZ085-086-088-633-658-670-070800-
MARINE OBSERVATIONS

STATION/POSITION TIME  TEMP    WIND        PRES    WAVE   SWELL
                       AIR SEA DIR/SP/G            HT/PER HT/PER
                 (UTC) (F)     (DEG/KT/KT) (MB)    (FT/S) (FT/S)
CHESAPEAKE LIGHT NOT AVBL
64 E VA BEACH    0650   54 60  300/ 29/ 35 1003.7   11/ 7   3/11
DUCK             0648   48 55  300/ 19/ 24 1007.5
2 E DUCK         NOT AVBL
OREGON INLET     0636   48 56  290/ 19/ 24 1007.4
13E OREGON INLT  NOT AVBL
HATTERAS CG      0648   50 61  280/ 22/ 27 1008.5
DIAMOND BUOY     0650   58 74  300/ 25/ 33 1007.9    8/ 6   3/ 9
CAPE LOOKOUT     0700   50     310/ 15/ 18 1010.0
BEAUFORT LAB     0648   48 56  320/  6/ 16 1009.4
30 SE NEW RVR IN 0608   51 70  310/ 19/ 25 1010.1
30 SE NEW RVR IN NOT AVBL
27 SE WRIGHTSVLE 0608   56 68  290/ 17/ 25 1010.0
5 SE WRIGHTSVLE  0608   50 62  310/ 16/ 25 1010.2
225 S CAPE HAT   0650   76 74  250/ 21/ 27 1009.1   11/ 9   7/ 9
41 SE CHARLESTON 0650   60 74  320/ 12/ 16 1012.1    4/ 8   3/ 8

$$




USA.gov is the U.S. government's official web portal to all federal, state and local government web resources and services.